Total_Precipitation_Accumulation
0.06 0.20 0.46 0.76 1.31 1.61 1.29 0.77 0.49 0.29 0.34 0.43 0.54 0.64 0.64 0.75 1.06 1.70 1.41 0.96 0.82 1.01 1.06 1.12 1.27 1.21 1.37 1.56 1.58 1.68 1.91 2.00 1.96 1.72 1.74 1.97 2.19 2.34 2.41 2.41 2.43 2.61 3.01 3.28 3.19 2.93 2.82 2.67 2.54
0.13 0.40 0.67 1.06 1.51 1.30 1.03 0.61 0.34 0.25 0.28 0.40 0.46 0.44 0.44 0.44 0.47 0.71 1.00 0.83 0.69 0.72 0.77 0.91 1.11 1.17 1.22 1.38 1.44 1.53 1.68 1.79 1.82 1.69 1.66 1.87 2.12 2.29 2.44 2.52 2.48 2.59 2.89 3.28 3.20 2.98 2.84 2.66 2.44
0.25 0.45 0.76 1.15 1.11 0.79 0.65 0.39 0.29 0.30 0.36 0.45 0.44 0.39 0.42 0.57 0.47 0.57 0.75 0.66 0.62 0.60 0.73 1.02 1.15 1.15 1.16 1.23 1.34 1.46 1.53 1.56 1.62 1.62 1.71 1.88 2.07 2.27 2.37 2.38 2.44 2.52 2.73 2.99 3.10 2.81 2.48 2.35 2.26
0.29 0.50 0.69 0.79 0.62 0.44 0.37 0.30 0.26 0.26 0.40 0.56 0.60 0.47 0.39 0.45 0.43 0.49 0.54 0.54 0.61 0.71 0.77 1.00 1.16 1.08 1.12 1.18 1.20 1.33 1.44 1.53 1.66 1.67 1.75 1.98 2.11 2.28 2.35 2.16 2.13 2.28 2.42 2.60 2.69 2.45 2.15 2.14 2.28
0.34 0.59 0.77 0.57 0.40 0.32 0.29 0.25 0.23 0.26 0.34 0.58 0.67 0.66 0.63 0.60 0.45 0.44 0.52 0.54 0.55 0.63 0.78 0.98 1.08 0.97 0.98 1.01 1.12 1.32 1.45 1.57 1.73 1.76 1.84 1.99 2.17 2.35 2.35 2.16 2.28 2.29 2.38 2.50 2.41 2.28 2.22 2.41 2.48
0.47 0.63 0.57 0.43 0.28 0.23 0.21 0.21 0.27 0.31 0.46 0.56 0.59 0.67 0.82 0.76 0.59 0.48 0.55 0.58 0.59 0.60 0.74 0.96 1.01 0.92 0.95 1.07 1.20 1.32 1.44 1.55 1.72 1.76 1.77 1.87 2.14 2.30 2.20 2.15 2.28 2.19 2.31 2.37 2.25 2.11 2.11 2.30 2.47
0.33 0.43 0.36 0.37 0.30 0.23 0.17 0.20 0.32 0.37 0.63 0.77 0.80 0.77 0.96 0.97 0.70 0.59 0.66 0.65 0.69 0.66 0.76 0.89 0.94 0.92 0.97 1.12 1.34 1.47 1.52 1.63 1.76 1.73 1.72 1.85 1.99 2.15 2.16 2.15 2.21 2.20 2.23 2.07 1.99 2.06 1.99 2.08 2.35
0.18 0.24 0.25 0.26 0.27 0.20 0.15 0.18 0.28 0.36 0.55 0.62 0.75 0.89 1.12 0.98 0.72 0.67 0.72 0.78 0.83 0.83 0.88 0.88 0.89 0.90 0.93 1.07 1.46 1.69 1.72 1.79 1.86 1.86 1.87 2.04 2.11 2.08 2.07 1.96 2.05 2.07 2.00 1.94 1.97 2.01 2.01 2.10 2.35
0.15 0.18 0.19 0.18 0.15 0.16 0.12 0.17 0.23 0.37 0.47 0.49 0.62 0.77 0.97 0.77 0.73 0.85 1.04 1.13 1.11 1.06 1.12 1.04 1.07 1.01 1.08 1.16 1.44 1.73 1.82 1.94 2.12 2.16 2.21 2.50 2.65 2.37 2.32 2.01 2.15 2.14 2.11 2.16 2.24 2.26 2.29 2.26 2.48
0.14 0.13 0.10 0.08 0.07 0.10 0.11 0.16 0.22 0.36 0.74 0.94 1.07 0.97 0.84 0.84 0.89 0.97 1.15 1.30 1.31 1.29 1.13 1.14 1.27 1.22 1.35 1.36 1.59 2.10 2.12 2.25 2.50 2.56 2.48 2.78 2.86 2.85 2.39 2.44 2.71 2.77 2.78 2.77 2.87 2.99 2.85 2.46 2.38
0.09 0.08 0.06 0.05 0.03 0.05 0.09 0.15 0.15 0.32 0.87 1.41 1.53 1.18 0.86 0.97 1.11 1.26 1.36 1.46 1.36 1.39 1.25 1.39 1.52 1.65 1.72 1.99 1.79 1.98 2.37 2.61 2.73 2.82 2.94 3.04 2.74 2.62 2.52 2.71 3.04 3.15 3.11 3.02 3.12 3.33 3.00 2.82 2.88
0.05 0.05 0.05 0.04 0.04 0.05 0.08 0.15 0.20 0.35 0.82 1.23 1.23 1.00 0.83 1.05 1.22 1.52 1.69 1.85 1.92 1.94 1.93 1.90 2.08 2.30 2.32 2.12 2.08 1.98 2.09 2.30 2.66 2.91 2.80 2.92 3.08 3.06 2.85 2.92 2.96 3.05 3.17 3.40 3.23 3.33 3.37 3.30 3.04
0.04 0.04 0.05 0.04 0.05 0.06 0.11 0.15 0.24 0.46 0.57 0.63 0.74 0.77 0.86 1.16 1.46 1.84 2.07 2.28 2.44 2.74 2.88 2.83 2.81 2.76 2.82 2.82 2.68 2.26 2.40 2.35 2.44 2.86 2.90 2.89 3.13 3.22 3.11 3.01 3.12 2.82 2.90 3.25 3.51 3.33 3.42 3.51 3.30
0.04 0.05 0.05 0.06 0.06 0.07 0.10 0.16 0.29 0.55 0.58 0.61 0.67 0.71 0.83 1.24 1.79 2.28 2.40 2.54 2.83 3.50 3.98 3.75 3.59 3.36 3.25 3.27 3.22 3.14 2.83 2.72 2.54 2.82 2.95 3.05 3.27 3.37 3.29 3.10 3.11 2.79 2.72 2.99 3.25 3.25 3.45 3.45 3.39
0.06 0.07 0.10 0.10 0.09 0.15 0.18 0.33 0.48 0.66 0.65 0.64 0.74 0.77 0.84 1.22 1.70 2.44 2.82 3.07 3.37 4.13 4.73 4.50 4.38 4.37 4.14 4.02 3.65 3.25 3.04 2.87 3.04 3.21 3.32 3.34 3.35 3.49 3.43 3.29 3.09 2.97 3.04 3.14 3.14 3.20 3.56 3.35 3.22
0.10 0.14 0.26 0.21 0.15 0.18 0.27 0.68 0.75 0.75 0.68 0.71 0.92 0.86 0.86 1.19 1.70 2.42 3.05 3.55 3.90 4.30 4.76 5.14 4.80 5.20 5.12 4.87 4.39 3.84 3.62 3.61 3.54 3.46 3.57 3.33 3.25 3.30 3.50 3.21 2.94 3.10 3.27 3.39 3.37 3.33 3.52 3.58 3.66
0.17 0.23 0.35 0.32 0.21 0.20 0.29 0.81 0.86 0.64 0.65 0.80 0.97 0.99 1.03 1.30 1.67 2.18 2.83 3.40 3.98 4.58 5.12 5.63 5.82 5.92 5.53 5.19 4.78 4.47 4.26 4.03 3.63 3.23 3.12 2.99 2.74 2.59 2.73 2.64 2.63 2.70 2.88 2.85 2.65 3.02 3.26 3.47 3.66
0.16 0.19 0.26 0.42 0.32 0.23 0.32 0.65 0.76 0.67 0.65 0.84 1.06 1.04 1.10 1.33 1.72 2.14 2.70 3.18 3.84 4.69 5.53 5.99 6.15 5.78 5.39 5.03 4.57 4.40 4.10 3.81 3.47 3.05 2.76 2.56 2.48 2.24 2.35 2.18 2.18 2.37 2.63 2.71 2.80 3.02 2.95 2.88 3.02
0.11 0.17 0.22 0.33 0.27 0.25 0.39 0.63 0.74 0.75 0.78 0.93 1.09 1.09 1.15 1.29 1.68 2.16 2.70 3.19 3.85 4.75 5.68 6.07 5.92 5.37 4.90 4.47 4.02 3.70 3.42 3.22 3.10 2.78 2.42 2.33 2.30 2.26 2.46 2.19 2.41 2.40 2.51 2.56 2.51 2.63 2.59 2.33 2.45
0.13 0.19 0.23 0.30 0.24 0.29 0.42 0.64 0.84 0.94 1.00 0.95 1.00 1.11 1.09 1.29 1.74 2.26 2.86 3.25 3.57 4.10 4.85 5.18 4.90 4.29 3.67 3.43 3.34 3.22 3.16 2.84 2.63 2.54 2.45 2.16 2.16 2.17 2.18 2.27 2.06 2.11 2.30 2.25 2.24 2.54 2.51 2.20 2.26
0.13 0.17 0.23 0.27 0.22 0.33 0.47 0.87 1.14 1.17 0.96 0.76 0.68 0.81 0.84 1.00 1.53 2.27 2.82 3.10 3.36 3.55 3.54 3.69 3.61 3.14 2.82 2.74 2.75 2.77 2.90 2.70 2.42 2.33 2.25 2.01 1.92 1.85 1.92 1.93 1.99 2.13 2.06 2.14 2.20 2.26 2.39 2.32 2.14
0.12 0.10 0.12 0.17 0.23 0.44 0.54 1.26 1.48 1.25 1.07 0.83 0.66 0.66 0.70 0.92 1.37 2.13 2.43 2.54 2.58 2.67 2.47 2.48 2.59 2.45 2.42 2.34 2.39 2.30 2.16 2.15 2.06 2.04 2.00 1.94 1.82 1.73 1.61 1.67 1.78 1.96 1.95 2.20 1.96 2.01 2.25 2.33 2.10
0.12 0.09 0.09 0.16 0.24 0.43 0.66 1.13 1.53 1.35 1.20 0.91 0.67 0.61 0.71 0.81 1.08 1.42 1.50 1.63 1.70 1.77 1.81 1.99 2.27 2.32 2.23 2.18 2.32 2.34 2.05 1.92 1.84 1.87 1.97 1.89 1.78 1.65 1.49 1.55 1.73 1.87 1.91 1.98 1.99 2.23 2.18 2.09 2.06
0.09 0.11 0.17 0.33 0.48 0.84 0.86 1.02 1.48 1.28 0.99 0.72 0.61 0.60 0.55 0.58 0.77 0.97 1.03 1.10 1.16 1.20 1.33 1.55 1.99 2.19 2.06 2.02 2.08 2.05 1.99 1.95 1.87 1.81 1.85 1.80 1.73 1.71 1.69 1.61 1.73 1.76 1.79 1.83 1.90 2.07 2.07 2.05 2.11
0.09 0.15 0.40 0.82 1.23 1.32 0.84 0.97 1.32 0.93 0.67 0.51 0.43 0.45 0.48 0.60 0.68 0.80 0.97 1.02 0.94 0.90 1.03 1.24 1.57 1.72 1.68 1.74 1.86 1.93 2.00 1.95 1.81 1.76 1.70 1.67 1.55 1.60 1.76 1.74 1.78 1.81 1.84 1.79 1.87 1.92 1.91 1.97 2.07
0.12 0.14 0.30 0.57 0.70 0.80 0.81 1.26 1.39 0.79 0.53 0.41 0.38 0.39 0.51 0.57 0.56 0.59 0.69 0.70 0.69 0.76 0.85 1.01 1.18 1.27 1.36 1.48 1.67 1.80 1.82 1.80 1.76 1.87 1.73 1.60 1.45 1.42 1.59 1.73 1.76 1.72 1.65 1.65 2.01 1.84 1.77 1.91 1.99
0.11 0.11 0.13 0.18 0.27 0.58 0.94 1.20 1.10 0.71 0.47 0.38 0.37 0.36 0.47 0.48 0.41 0.40 0.44 0.47 0.55 0.73 0.83 0.89 0.99 1.11 1.21 1.33 1.57 1.69 1.69 1.65 1.69 1.78 1.68 1.51 1.52 1.47 1.55 1.53 1.71 1.77 1.68 1.69 1.89 1.87 1.81 1.89 1.88
0.09 0.10 0.11 0.14 0.29 0.57 0.92 1.30 1.26 0.94 0.67 0.57 0.44 0.37 0.43 0.44 0.38 0.38 0.42 0.46 0.47 0.55 0.73 0.84 0.89 1.04 1.20 1.27 1.32 1.36 1.50 1.48 1.47 1.42 1.41 1.48 1.51 1.51 1.59 1.61 1.57 1.61 1.69 1.78 1.91 1.83 1.78 1.90 1.99
0.09 0.08 0.09 0.11 0.17 0.38 0.77 1.06 0.84 0.68 0.55 0.57 0.53 0.49 0.48 0.48 0.46 0.41 0.47 0.51 0.51 0.53 0.67 0.80 0.84 0.92 1.02 1.03 1.06 1.17 1.25 1.26 1.23 1.23 1.21 1.32 1.38 1.43 1.45 1.48 1.52 1.50 1.58 1.82 2.11 2.02 1.99 2.03 2.09
0.09 0.08 0.09 0.12 0.15 0.22 0.47 0.65 0.45 0.47 0.45 0.53 0.57 0.60 0.60 0.61 0.59 0.56 0.56 0.52 0.57 0.62 0.67 0.76 0.72 0.73 0.76 0.82 0.88 0.98 1.10 1.12 1.12 1.16 1.30 1.38 1.37 1.32 1.23 1.28 1.34 1.31 1.43 1.70 2.01 2.17 2.23 2.30 2.28